�N����,����,�g�[���i�L�b�`���j���x,�g�[�����x,��g�[���i���ʏ��j���x,����
 2004/03/01, 0:00,17.5,49,13,13.6
 2004/03/01, 0:15,17.3,49,13,13.6
 2004/03/01, 0:30,17.1,49,12.8,13.7
 2004/03/01, 0:45,16.7,49,12.7,13.7
 2004/03/01, 1:00,16.6,48,12.5,13.8
 2004/03/01, 1:15,16.4,48,12.5,13.8
 2004/03/01, 1:30,16.2,48,12.3,13.9
 2004/03/01, 1:45,16,48,12.3,13.9
 2004/03/01, 2:00,15.8,48,12.1,14
 2004/03/01, 2:15,15.6,48,12.1,14
 2004/03/01, 2:30,15.5,47,12,14
 2004/03/01, 2:45,15.2,48,11.9,14.1
 2004/03/01, 3:00,15.2,48,11.8,14.1
 2004/03/01, 3:15,15.1,48,11.7,14.1
 2004/03/01, 3:30,15,48,11.6,14.2
 2004/03/01, 3:45,14.8,48,11.5,14.2
 2004/03/01, 4:00,14.7,47,11.4,14.2
 2004/03/01, 4:15,14.5,48,11.3,14.2
 2004/03/01, 4:30,14.3,48,11.2,14.3
 2004/03/01, 4:45,14.4,48,11.1,14.3
 2004/03/01, 5:00,14.2,48,11.1,14.3
 2004/03/01, 5:15,14.2,47,10.8,14.3
 2004/03/01, 5:30,14.1,47,10.7,14.3
 2004/03/01, 5:45,13.9,46,10.6,14.4
 2004/03/01, 6:00,13.9,47,10.7,12.4
 2004/03/01, 6:15,15,46,10.5,12.2
 2004/03/01, 6:30,16.8,43,11,12.2
 2004/03/01, 6:45,16.4,44,11.1,12.2
 2004/03/01, 7:00,16.2,45,10.9,12.3
 2004/03/01, 7:15,17.5,44,10.8,12.3
 2004/03/01, 7:30,18.4,41,11,12.3
 2004/03/01, 7:45,16.9,43,11,12.4
 2004/03/01, 8:00,17,43,11.3,12.4
 2004/03/01, 8:15,17,42,11.1,10.5
 2004/03/01, 8:30,16.9,42,11,10.7
 2004/03/01, 8:45,15.9,42,11.2,10.8
 2004/03/01, 9:00,15.4,43,11,10.9
 2004/03/01, 9:15,15.1,44,10.8,11.1
 2004/03/01, 9:30,14.9,45,10.8,11.3
 2004/03/01, 9:45,14.4,42,10.8,11.4
 2004/03/01,10:00,14.2,44,10.6,11.6
 2004/03/01,10:15,14.1,45,10.6,11.8
 2004/03/01,10:30,14.1,46,10.4,11.9
 2004/03/01,10:45,14,46,10.4,12
 2004/03/01,11:00,13.9,47,10.5,12.1
 2004/03/01,11:15,13.8,48,10.8,10.7
 2004/03/01,11:30,14.1,47,11.3,10.6
 2004/03/01,11:45,14.2,48,11.5,10.6
 2004/03/01,12:00,14.5,49,12,10.7
 2004/03/01,12:15,14.6,48,12.3,10.7
 2004/03/01,12:30,15.8,47,12.5,10.8
 2004/03/01,12:45,16.1,46,12.7,10.9
 2004/03/01,13:00,15.4,47,12.8,11
 2004/03/01,13:15,15.3,47,12.8,11
 2004/03/01,13:30,15.1,47,12.6,11.1
 2004/03/01,13:45,14.9,47,12.5,10.6
 2004/03/01,14:00,15,46,13.1,10.7
 2004/03/01,14:15,14.8,46,12.8,10.8
 2004/03/01,14:30,14.8,47,13.1,10.3
 2004/03/01,14:45,14.8,46,13,10.4
 2004/03/01,15:00,14.8,47,13.2,10.5
 2004/03/01,15:15,14.8,47,13.1,10.5
 2004/03/01,15:30,14.8,46,13.3,10.6
 2004/03/01,15:45,14.8,47,13,10.7
 2004/03/01,16:00,14.8,47,13.2,10.8
 2004/03/01,16:15,14.7,46,13.2,10.8
 2004/03/01,16:30,14.7,46,13,10.9
 2004/03/01,16:45,14.6,45,12.6,11
 2004/03/01,17:00,14.5,45,12.4,11.1
 2004/03/01,17:15,14.5,44,12.2,11
 2004/03/01,17:30,14.4,43,12,11
 2004/03/01,17:45,14.4,45,11.8,11.1
 2004/03/01,18:00,14.4,46,11.7,11.2
 2004/03/01,18:15,14.5,46,12.2,11.2
 2004/03/01,18:30,16.3,46,12.7,11.3
 2004/03/01,18:45,16,45,14,11.3
 2004/03/01,19:00,15.9,46,13.3,11.4
 2004/03/01,19:15,16.1,48,13.1,11.5
 2004/03/01,19:30,16.5,49,13.3,11.6
 2004/03/01,19:45,16.7,48,12.8,11.6
 2004/03/01,20:00,17.1,46,12.5,11.7
 2004/03/01,20:15,17.1,44,12.4,11.7
 2004/03/01,20:30,17.1,43,12.3,11.8
 2004/03/01,20:45,17,43,12.5,11.9
 2004/03/01,21:00,17.1,44,13,11.9
 2004/03/01,21:15,17.5,43,13,12
 2004/03/01,21:30,16.7,45,12.3,12
 2004/03/01,21:45,16.5,45,12,12.1
 2004/03/01,22:00,16.3,45,12.1,12.1
 2004/03/01,22:15,16.3,45,11.7,12.2
 2004/03/01,22:30,16.3,46,11.3,12.3
 2004/03/01,22:45,16.1,46,11.1,12.3
 2004/03/01,23:00,16.2,46,10.8,12.4
 2004/03/01,23:15,16.1,46,10.6,12.4
 2004/03/01,23:30,15.9,45,10.4,12.5
 2004/03/01,23:45,15.9,45,10.5,12.5
 2004/03/02, 0:00,15.4,45,10.3,11.5
 2004/03/02, 0:15,15.1,45,10,11.5
 2004/03/02, 0:30,14.7,45,9.8,11.5
 2004/03/02, 0:45,14.5,45,9.7,11.6
 2004/03/02, 1:00,14.2,45,9.5,11.6
 2004/03/02, 1:15,14,46,9.3,11.7
 2004/03/02, 1:30,13.8,46,9,11.7
 2004/03/02, 1:45,13.6,46,8.8,11.8
 2004/03/02, 2:00,13.5,45,8.7,11.8
 2004/03/02, 2:15,13.3,45,8.5,11.8
 2004/03/02, 2:30,13.1,45,8.4,11.9
 2004/03/02, 2:45,12.9,45,8.4,11.9
 2004/03/02, 3:00,12.8,45,8.2,11.9
 2004/03/02, 3:15,12.6,45,8,11.9
 2004/03/02, 3:30,12.5,45,7.9,12
 2004/03/02, 3:45,12.3,45,7.8,12
 2004/03/02, 4:00,12.2,45,7.6,12
 2004/03/02, 4:15,12.1,45,7.5,12
 2004/03/02, 4:30,12,45,7.5,12
 2004/03/02, 4:45,11.8,45,7.5,12
 2004/03/02, 5:00,11.8,45,7.5,12
 2004/03/02, 5:15,11.7,45,7.3,12.1
 2004/03/02, 5:30,11.6,45,7.2,12.1
 2004/03/02, 5:45,11.5,45,7.1,12.1
 2004/03/02, 6:00,11.4,45,6.9,9.9
 2004/03/02, 6:15,15.1,41,6.9,9.8
 2004/03/02, 6:30,17.1,38,7.5,9.8
 2004/03/02, 6:45,17,40,8.2,9.9
 2004/03/02, 7:00,18.8,37,7.9,9.9
 2004/03/02, 7:15,19.1,37,8.2,9.9
 2004/03/02, 7:30,19.8,36,8.3,10
 2004/03/02, 7:45,19.8,35,8.5,10
 2004/03/02, 8:00,19.1,36,8.8,10.1
 2004/03/02, 8:15,16.9,39,8.5,10.2
 2004/03/02, 8:30,15.8,39,8.9,10.2
 2004/03/02, 8:45,18,37,8.8,10.3
 2004/03/02, 9:00,15.6,39,8.7,10.3
 2004/03/02, 9:15,14.8,39,8.8,10.4
 2004/03/02, 9:30,14.2,40,8.4,10.5
 2004/03/02, 9:45,12.3,45,8.1,10.5
 2004/03/02,10:00,12.8,43,8.3,10
 2004/03/02,10:15,12.7,43,8.3,10
 2004/03/02,10:30,12.8,43,8.4,10
 2004/03/02,10:45,12.7,43,8.6,10.1
 2004/03/02,11:00,12.7,43,9,10.1
 2004/03/02,11:15,12.8,43,9.3,10.2
 2004/03/02,11:30,12.7,43,9.2,10.2
 2004/03/02,11:45,12.7,43,9.5,10.3
 2004/03/02,12:00,12.8,42,10,10.3
 2004/03/02,12:15,12.8,41,10.3,10.4
 2004/03/02,12:30,12.8,40,10.4,10.4
 2004/03/02,12:45,12.8,43,10.4,10.5
 2004/03/02,13:00,12.8,42,10.6,10.5
 2004/03/02,13:15,14.8,41,10.8,10.6
 2004/03/02,13:30,14.6,42,11.3,10.7
 2004/03/02,13:45,14.2,42,12.1,10.7
 2004/03/02,14:00,14.1,42,12.1,10.8
 2004/03/02,14:15,14.1,41,12,10.8
 2004/03/02,14:30,13.8,40,11.5,10.9
 2004/03/02,14:45,13.8,40,11.5,11
 2004/03/02,15:00,13.9,41,12.1,11
 2004/03/02,15:15,14,42,12.3,11.1
 2004/03/02,15:30,14,42,12.5,11.1
 2004/03/02,15:45,14,43,12.6,11.2
 2004/03/02,16:00,14.1,43,12.9,10.7
 2004/03/02,16:15,14.2,44,13,10.8
 2004/03/02,16:30,14.1,44,13,10.8
 2004/03/02,16:45,14.1,44,12.9,10.9
 2004/03/02,17:00,14.1,44,12.8,10.9
 2004/03/02,17:15,14,44,12.6,11
 2004/03/02,17:30,13.9,44,12.3,11
 2004/03/02,17:45,13.9,44,12,11.1
 2004/03/02,18:00,13.8,44,11.6,10.7
 2004/03/02,18:15,13.9,42,11.3,10.7
 2004/03/02,18:30,14.1,44,10.8,10.7
 2004/03/02,18:45,13.9,44,10.5,10.8
 2004/03/02,19:00,13.7,42,10.1,10.8
 2004/03/02,19:15,13.8,42,9.9,10.9
 2004/03/02,19:30,13.8,43,9.6,11
 2004/03/02,19:45,16.6,40,9.6,11
 2004/03/02,20:00,17.8,36,9.3,11.1
 2004/03/02,20:15,17.5,37,9.2,11.1
 2004/03/02,20:30,16.6,39,9.1,11.2
 2004/03/02,20:45,15.8,40,9.9,11.2
 2004/03/02,21:00,16.4,40,10.4,11.3
 2004/03/02,21:15,16,40,10.8,11.3
 2004/03/02,21:30,16,40,13.4,11.4
 2004/03/02,21:45,15.6,40,12.4,11.4
 2004/03/02,22:00,15.2,42,11.7,11.5
 2004/03/02,22:15,15.1,42,11.2,11.5
 2004/03/02,22:30,15.1,42,10.8,11.6
 2004/03/02,22:45,15.2,42,10.7,11.6
 2004/03/02,23:00,15.2,42,10.6,11.7
 2004/03/02,23:15,15.1,42,10.1,11.7
 2004/03/02,23:30,15,42,9.7,11.8
 2004/03/02,23:45,15,42,9.3,11.8
 2004/03/03, 0:00,14.8,42,9,10.5
 2004/03/03, 0:15,14.8,42,8.8,10.5
 2004/03/03, 0:30,14.2,42,8.7,10.5
 2004/03/03, 0:45,13.8,42,8.5,10.6
 2004/03/03, 1:00,13.5,41,8.2,10.6
 2004/03/03, 1:15,13.3,41,8.2,10.7
 2004/03/03, 1:30,13,41,7.9,10.7
 2004/03/03, 1:45,12.8,40,7.8,10.7
 2004/03/03, 2:00,12.6,41,7.7,10.8
 2004/03/03, 2:15,12.4,41,7.7,10.8
 2004/03/03, 2:30,12.3,41,7.6,10.8
 2004/03/03, 2:45,12.1,41,7.4,10.9
 2004/03/03, 3:00,12,41,7.5,10.9
 2004/03/03, 3:15,11.8,41,7.2,10.9
 2004/03/03, 3:30,11.6,41,7.2,11
 2004/03/03, 3:45,11.5,41,7,11
 2004/03/03, 4:00,11.4,41,6.9,11
 2004/03/03, 4:15,11.2,41,6.7,11
 2004/03/03, 4:30,11.1,41,6.7,11
 2004/03/03, 4:45,11,42,6.6,11
 2004/03/03, 5:00,10.9,42,6.5,11.1
 2004/03/03, 5:15,10.8,42,6.6,11.1
 2004/03/03, 5:30,10.7,42,6.5,11.1
 2004/03/03, 5:45,10.6,42,6.3,11.1
 2004/03/03, 6:00,10.8,43,6.3,9.4
 2004/03/03, 6:15,15.4,37,6.2,9.1
 2004/03/03, 6:30,16.1,37,6.9,9.1
 2004/03/03, 6:45,14.8,41,7.1,9.1
 2004/03/03, 7:00,16.6,37,7,9.2
 2004/03/03, 7:15,18.7,34,7,9.2
 2004/03/03, 7:30,17.6,37,7.2,9.2
 2004/03/03, 7:45,18.2,36,7.9,9.2
 2004/03/03, 8:00,16.7,38,7.9,9.3
 2004/03/03, 8:15,16,39,8,9.3
 2004/03/03, 8:30,16,38,8.3,7.9
 2004/03/03, 8:45,15.8,38,8.4,8.2
 2004/03/03, 9:00,15.7,38,9.2,8.2
 2004/03/03, 9:15,15.2,35,8.4,8.3
 2004/03/03, 9:30,14,34,8.5,8.4
 2004/03/03, 9:45,13.6,34,8.4,8.4
 2004/03/03,10:00,13.5,34,8.6,8.5
 2004/03/03,10:15,12.7,32,8.8,8.6
 2004/03/03,10:30,12.3,34,7.7,8.6
 2004/03/03,10:45,12.2,33,7.9,8.7
 2004/03/03,11:00,12.2,33,8.1,8.6
 2004/03/03,11:15,12.3,35,8.5,8.8
 2004/03/03,11:30,12.2,34,8.1,8.8
 2004/03/03,11:45,12.2,34,8.2,8.9
 2004/03/03,12:00,13.3,34,8.2,8.9
 2004/03/03,12:15,13.3,34,8.3,8.8
 2004/03/03,12:30,15.4,34,8.6,8.9
 2004/03/03,12:45,15.9,33,8.9,9
 2004/03/03,13:00,16.3,32,8.7,9
 2004/03/03,13:15,16.2,32,8.7,9.1
 2004/03/03,13:30,16.2,32,8.7,9.2
 2004/03/03,13:45,15,33,8.7,9.2
 2004/03/03,14:00,14.3,33,9.4,9.3
 2004/03/03,14:15,14,35,9.8,9.4
 2004/03/03,14:30,13.8,36,10,9.4
 2004/03/03,14:45,13.7,36,10,9.5
 2004/03/03,15:00,13.6,37,9.7,9.5
 2004/03/03,15:15,13.4,37,9.7,9.6
 2004/03/03,15:30,13.5,39,9.5,9
 2004/03/03,15:45,13.6,41,9.3,9.1
 2004/03/03,16:00,13.5,40,9.3,9.1
 2004/03/03,16:15,13.6,41,9.2,9.2
 2004/03/03,16:30,13.5,41,9.2,9.2
 2004/03/03,16:45,13.3,41,9,9.3
 2004/03/03,17:00,13.5,44,8.8,9.3
 2004/03/03,17:15,13.7,47,8.8,9.4
 2004/03/03,17:30,13.9,51,8.8,9.5
 2004/03/03,17:45,13.8,47,8.7,9.5
 2004/03/03,18:00,13.6,43,8.7,9.6
 2004/03/03,18:15,13.3,41,8.6,9.6
 2004/03/03,18:30,14.6,40,8.5,9.7
 2004/03/03,18:45,15.9,38,8.5,9.8
 2004/03/03,19:00,18.9,33,8.6,9.8
 2004/03/03,19:15,19.6,32,8.8,9.9
 2004/03/03,19:30,19.7,33,9,10
 2004/03/03,19:45,20.5,30,8.7,10
 2004/03/03,20:00,19.5,33,9.8,10.1
 2004/03/03,20:15,19.3,34,10.2,10.2
 2004/03/03,20:30,19.7,35,12.6,10.3
 2004/03/03,20:45,17,36,11,10.3
 2004/03/03,21:00,16.1,35,11.5,10.4
 2004/03/03,21:15,15.6,35,10.8,10.5
 2004/03/03,21:30,16,37,10.8,10.6
 2004/03/03,21:45,16.3,37,10.9,10.6
 2004/03/03,22:00,15.8,38,10.2,10.7
 2004/03/03,22:15,15.7,38,10.6,10.8
 2004/03/03,22:30,15.5,38,10.3,10.8
 2004/03/03,22:45,15.4,38,9.7,10.9
 2004/03/03,23:00,15.3,38,9,10.9
 2004/03/03,23:15,15.1,39,8.7,11
 2004/03/03,23:30,15,39,8.7,11
 2004/03/03,23:45,14.8,40,8.5,11.1
 2004/03/04, 0:00,14.4,40,8.3,9.7
 2004/03/04, 0:15,13.9,40,8.2,9.8
 2004/03/04, 0:30,13.5,39,8.2,9.8
 2004/03/04, 0:45,13.2,40,8.1,9.9
 2004/03/04, 1:00,13.1,39,8,9.9
 2004/03/04, 1:15,12.8,39,8,9.9
 2004/03/04, 1:30,12.6,39,7.9,10
 2004/03/04, 1:45,12.4,40,7.9,10
 2004/03/04, 2:00,12.3,40,7.8,10.1
 2004/03/04, 2:15,12.1,40,7.6,10.1
 2004/03/04, 2:30,11.9,40,7.7,10.2
 2004/03/04, 2:45,11.8,41,7.5,10.2
 2004/03/04, 3:00,11.6,41,7.5,10.3
 2004/03/04, 3:15,11.6,40,7.5,10.3
 2004/03/04, 3:30,11.4,41,7.4,10.3
 2004/03/04, 3:45,11.2,41,7.5,10.4
 2004/03/04, 4:00,11.2,41,7.5,10.4
 2004/03/04, 4:15,11,41,7.4,10.4
 2004/03/04, 4:30,10.9,41,7.3,10.5
 2004/03/04, 4:45,10.8,41,7.2,10.5
 2004/03/04, 5:00,10.7,42,7.1,10.5
 2004/03/04, 5:15,10.7,42,7,10.5
 2004/03/04, 5:30,10.6,42,6.9,10.6
 2004/03/04, 5:45,10.5,42,6.9,10.6
 2004/03/04, 6:00,10.4,42,6.8,8.8
 2004/03/04, 6:15,14.2,37,6.5,8.8
 2004/03/04, 6:30,15.8,36,7.2,8.8
 2004/03/04, 6:45,14.7,39,7.2,8.9
 2004/03/04, 7:00,16.2,37,7.2,8.9
 2004/03/04, 7:15,16.3,36,7.2,9
 2004/03/04, 7:30,17.1,36,7.2,8.9
 2004/03/04, 7:45,17.4,36,7.6,9
 2004/03/04, 8:00,17.6,36,7.6,9
 2004/03/04, 8:15,17.6,35,8,8.7
 2004/03/04, 8:30,16.9,34,8.3,8.7
 2004/03/04, 8:45,16.5,33,8.2,8.8
 2004/03/04, 9:00,16,34,7.9,8.8
 2004/03/04, 9:15,15.8,33,7.8,8.9
 2004/03/04, 9:30,15.2,33,7.9,8.9
 2004/03/04, 9:45,14.5,34,8,9
 2004/03/04,10:00,14.2,34,8.2,9.1
 2004/03/04,10:15,14.1,34,8.2,9.1
 2004/03/04,10:30,13.5,31,8.2,9.2
 2004/03/04,10:45,13.6,31,8.3,9.2
 2004/03/04,11:00,13.6,33,8.4,9.3
 2004/03/04,11:15,13.5,33,8.6,9.4
 2004/03/04,11:30,13.4,33,8.8,9.4
 2004/03/04,11:45,13.3,34,9.1,9.5
 2004/03/04,12:00,15.4,32,9.2,9.5
 2004/03/04,12:15,15.2,32,9.4,9.6
 2004/03/04,12:30,16.1,30,9.3,9.6
 2004/03/04,12:45,15.5,32,9.9,9.7
 2004/03/04,13:00,14.4,35,9.8,9.8
 2004/03/04,13:15,14.1,35,9.6,9.8
 2004/03/04,13:30,13.8,35,9.5,9.9
 2004/03/04,13:45,13.6,35,9.6,9.9
 2004/03/04,14:00,13.5,35,9.9,10
 2004/03/04,14:15,13.4,35,10.6,10
 2004/03/04,14:30,13.3,36,10.8,10.1
 2004/03/04,14:45,13.6,40,11.3,10.2
 2004/03/04,15:00,13.9,38,11.5,10.2
 2004/03/04,15:15,13.9,38,11.6,10.3
 2004/03/04,15:30,14.2,39,12,10.4
 2004/03/04,15:45,14.2,38,12,9.4
 2004/03/04,16:00,13.9,38,11.6,9.4
 2004/03/04,16:15,13.9,40,11.2,9.5
 2004/03/04,16:30,13.8,39,11.6,9.5
 2004/03/04,16:45,13.8,39,11,9.6
 2004/03/04,17:00,13.5,37,10.6,9.7
 2004/03/04,17:15,13.2,37,10.3,9.7
 2004/03/04,17:30,13.2,36,10,9.2
 2004/03/04,17:45,13,36,9.8,9.2
 2004/03/04,18:00,13,36,9.5,9.3
 2004/03/04,18:15,12.8,36,9.2,9.4
 2004/03/04,18:30,12.8,36,8.8,9.4
 2004/03/04,18:45,12.6,37,8.7,9.5
 2004/03/04,19:00,13.6,35,8.4,9.5
 2004/03/04,19:15,15.4,33,8.2,9.6
 2004/03/04,19:30,15.8,33,8,9.6
 2004/03/04,19:45,16.7,32,7.9,9.7
 2004/03/04,20:00,17.8,30,7.8,9.7
 2004/03/04,20:15,17.2,31,8.2,9.7
 2004/03/04,20:30,16.9,31,8.6,9.8
 2004/03/04,20:45,16.3,34,12.1,9.8
 2004/03/04,21:00,16.2,34,11,9.9
 2004/03/04,21:15,16.3,33,10.2,9.9
 2004/03/04,21:30,16.4,35,11.3,10
 2004/03/04,21:45,16.3,35,11.2,10
 2004/03/04,22:00,15,35,10.4,10.1
 2004/03/04,22:15,14.3,35,9.9,10.2
 2004/03/04,22:30,13.9,33,9.6,10.3
 2004/03/04,22:45,13.6,34,9.6,10.3
 2004/03/04,23:00,15.3,36,9.9,10.4
 2004/03/04,23:15,16.1,35,10.1,10.4
 2004/03/04,23:30,16.2,32,9.1,10.5
 2004/03/04,23:45,16.2,35,8.8,10.5
 2004/03/05, 0:00,15.2,35,8.8,10.6
 2004/03/05, 0:15,14.9,36,8.4,10.7
 2004/03/05, 0:30,14.6,36,8,10.7
 2004/03/05, 0:45,14.4,36,7.7,10.7
 2004/03/05, 1:00,14.3,36,7.4,9.4
 2004/03/05, 1:15,14.3,36,7.2,9.3
 2004/03/05, 1:30,14,36,7,9.3
 2004/03/05, 1:45,13.2,37,6.9,9.4
 2004/03/05, 2:00,12.9,37,6.6,9.4
 2004/03/05, 2:15,12.5,37,6.5,9.4
 2004/03/05, 2:30,12.2,36,6.3,9.5
 2004/03/05, 2:45,11.9,37,6.2,9.5
 2004/03/05, 3:00,11.6,37,6,9.5
 2004/03/05, 3:15,11.4,36,5.8,9.6
 2004/03/05, 3:30,11.2,36,5.6,9.6
 2004/03/05, 3:45,10.9,37,5.4,9.6
 2004/03/05, 4:00,10.7,37,5.5,9.6
 2004/03/05, 4:15,10.5,37,5.4,9.7
 2004/03/05, 4:30,10.3,37,5.2,9.7
 2004/03/05, 4:45,10.1,37,5.2,9.7
 2004/03/05, 5:00,10,37,5.1,9.7
 2004/03/05, 5:15,9.8,37,4.9,9.7
 2004/03/05, 5:30,9.7,37,4.7,9.7
 2004/03/05, 5:45,9.6,37,4.5,9.7
 2004/03/05, 6:00,9.3,37,4.3,7.7
 2004/03/05, 6:15,13.3,34,4.3,7.7
 2004/03/05, 6:30,16,32,4.9,7.7
 2004/03/05, 6:45,15.5,33,5.1,7.7
 2004/03/05, 7:00,17,31,5.1,7.8
 2004/03/05, 7:15,18.6,30,5.3,7.8
 2004/03/05, 7:30,18.3,30,5.7,7.9
 2004/03/05, 7:45,17.8,32,6,7.9
 2004/03/05, 8:00,16.5,33,6.6,8
 2004/03/05, 8:15,16.2,33,6.8,8
 2004/03/05, 8:30,16.3,33,7.6,8.1
 2004/03/05, 8:45,15.2,33,7.2,8.1
 2004/03/05, 9:00,14.5,35,7.2,8.2
 2004/03/05, 9:15,13.8,32,6.5,8.3
 2004/03/05, 9:30,13.1,31,6.2,8.3
 2004/03/05, 9:45,12.5,31,5.9,8.4
 2004/03/05,10:00,12.5,31,6.2,7.6
 2004/03/05,10:15,11.7,32,6.2,7.6
 2004/03/05,10:30,11.2,33,6.5,7.7
 2004/03/05,10:45,11.6,33,6.7,7.8
 2004/03/05,11:00,11.5,33,6.9,7.8
 2004/03/05,11:15,12.5,32,7,7.9
 2004/03/05,11:30,12.2,32,7,8
 2004/03/05,11:45,12,32,7.2,8.1
 2004/03/05,12:00,12.4,33,7.8,8.2
 2004/03/05,12:15,12.6,33,8.5,8.2
 2004/03/05,12:30,12.8,34,8.9,8.3
 2004/03/05,12:45,12.7,34,9.3,8.4
 2004/03/05,13:00,12.8,34,9.7,8.5
 2004/03/05,13:15,12.7,33,10.1,8.5
 2004/03/05,13:30,14.6,34,10.6,8.6
 2004/03/05,13:45,14.4,35,11.2,8.7
 2004/03/05,14:00,14.8,34,11.7,8.7
 2004/03/05,14:15,14.7,35,12.1,8.8
 2004/03/05,14:30,14.2,35,12.4,8.9
 2004/03/05,14:45,14.1,37,12.5,9
 2004/03/05,15:00,14,35,12.6,8.8
 2004/03/05,15:15,14.1,35,12.8,8.9
 2004/03/05,15:30,14.4,36,13,8.8
 2004/03/05,15:45,14.6,36,13.2,8.9
 2004/03/05,16:00,14.7,36,13.7,8.8
 2004/03/05,16:15,14.7,36,13.6,8.9
 2004/03/05,16:30,14.5,36,13.6,9
 2004/03/05,16:45,14.5,36,13.5,9.1
 2004/03/05,17:00,14.5,36,13.3,9.2
 2004/03/05,17:15,14.5,37,13.3,9.2
 2004/03/05,17:30,15.7,39,13,9.3
 2004/03/05,17:45,15.8,39,12.6,9.4
 2004/03/05,18:00,15.9,38,12.2,9.5
 2004/03/05,18:15,16,37,12.3,9.6
 2004/03/05,18:30,16,36,13,9.6
 2004/03/05,18:45,16.1,37,13.5,9.6
 2004/03/05,19:00,16.4,40,14.4,9.7
 2004/03/05,19:15,16.8,43,14.7,9.8
 2004/03/05,19:30,16.9,40,14.1,9.8
 2004/03/05,19:45,17,42,13.7,9.9
 2004/03/05,20:00,17.1,40,13.1,10
 2004/03/05,20:15,17.4,38,13,10.1
 2004/03/05,20:30,17.3,38,12.7,10.2
 2004/03/05,20:45,17.5,37,12.6,10.3
 2004/03/05,21:00,17.7,36,12.5,10.3
 2004/03/05,21:15,17.8,35,12.4,10.4
 2004/03/05,21:30,17.4,36,12.3,10.5
 2004/03/05,21:45,17.1,37,12.4,10.6
 2004/03/05,22:00,16.9,37,12.6,10.7
 2004/03/05,22:15,17.1,39,13.1,10.7
 2004/03/05,22:30,16.7,39,13.4,10.8
 2004/03/05,22:45,16.7,39,13.3,10.9
 2004/03/05,23:00,16.7,39,12.8,11
 2004/03/05,23:15,16.7,40,12.7,11
 2004/03/05,23:30,16.8,40,12.5,11.1
 2004/03/05,23:45,16.7,41,12.3,11.2
 2004/03/06, 0:00,16.6,41,12.1,11.2
 2004/03/06, 0:15,16.5,41,12,10.8
 2004/03/06, 0:30,16.4,42,12,10.8
 2004/03/06, 0:45,16,41,12,10.9
 2004/03/06, 1:00,15.7,42,12,10.9
 2004/03/06, 1:15,15.4,42,11.7,11
 2004/03/06, 1:30,15.2,41,11.3,11
 2004/03/06, 1:45,15,42,10.8,11.1
 2004/03/06, 2:00,14.7,41,10.6,11.2
 2004/03/06, 2:15,14.6,41,10.2,11.2
 2004/03/06, 2:30,14.4,40,10.1,11.3
 2004/03/06, 2:45,14.2,40,10.2,11.3
 2004/03/06, 3:00,14.1,40,9.9,11.3
 2004/03/06, 3:15,13.9,41,9.7,11.4
 2004/03/06, 3:30,13.8,41,9.7,11.4
 2004/03/06, 3:45,13.6,40,9.7,11.5
 2004/03/06, 4:00,13.5,40,9.7,11.5
 2004/03/06, 4:15,13.3,40,9.5,11.5
 2004/03/06, 4:30,13.1,40,9.3,11.6
 2004/03/06, 4:45,13,39,8.6,11.6
 2004/03/06, 5:00,12.7,40,8.3,11.6
 2004/03/06, 5:15,12.7,40,8.2,11.7
 2004/03/06, 5:30,12.6,40,8.2,11.7
 2004/03/06, 5:45,12.4,40,8,11.7
 2004/03/06, 6:00,12.2,40,8,11.7
 2004/03/06, 6:15,12.2,40,7.9,11.8
 2004/03/06, 6:30,12.1,40,7.7,11.8
 2004/03/06, 6:45,12,40,7.5,11.8
 2004/03/06, 7:00,11.8,40,7.5,9.4
 2004/03/06, 7:15,13.9,41,7.6,9.4
 2004/03/06, 7:30,16.5,37,8.2,9.4
 2004/03/06, 7:45,16.4,37,8.2,9.5
 2004/03/06, 8:00,16.6,36,8.6,8.8
 2004/03/06, 8:15,15.7,35,8.4,8.7
 2004/03/06, 8:30,15.3,35,8.2,8.7
 2004/03/06, 8:45,15.1,35,8.3,8.8
 2004/03/06, 9:00,14.5,36,8.2,8.9
 2004/03/06, 9:15,14.3,36,8.3,8.9
 2004/03/06, 9:30,14.2,36,8.6,9
 2004/03/06, 9:45,14,37,8.7,9
 2004/03/06,10:00,13.8,35,8.7,9.1
 2004/03/06,10:15,13.5,34,8.4,9.2
 2004/03/06,10:30,13.1,32,8.5,9.2
 2004/03/06,10:45,13.2,33,8.8,9.3
 2004/03/06,11:00,13.2,34,9.2,9.3
 2004/03/06,11:15,13.1,35,9.2,9.4
 2004/03/06,11:30,12.9,35,8.8,9.4
 2004/03/06,11:45,12.6,37,8,9.5
 2004/03/06,12:00,14,38,7.5,9.6
 2004/03/06,12:15,15.1,38,8.2,9.5
 2004/03/06,12:30,17.1,38,8.8,9.6
 2004/03/06,12:45,19.2,33,8.5,9.7
 2004/03/06,13:00,18.5,32,8.3,8.7
 2004/03/06,13:15,16.7,37,8.5,8.8
 2004/03/06,13:30,15.9,37,9.5,8.9
 2004/03/06,13:45,15.4,38,10.4,8.9
 2004/03/06,14:00,15.1,38,10.9,9
 2004/03/06,14:15,14.8,38,9.9,9.1
 2004/03/06,14:30,15.1,39,9.6,9.1
 2004/03/06,14:45,15.6,38,9.9,8.6
 2004/03/06,15:00,15.6,38,9.8,8.7
 2004/03/06,15:15,15.8,39,9.8,8.8
 2004/03/06,15:30,16.1,39,10.1,8.8
 2004/03/06,15:45,16.4,38,11,8.9
 2004/03/06,16:00,16.4,37,11.8,8.9
 2004/03/06,16:15,16.5,37,12.1,9
 2004/03/06,16:30,16.5,36,12.1,9
 2004/03/06,16:45,16.3,36,11.9,9.1
 2004/03/06,17:00,16.2,36,12,9.2
 2004/03/06,17:15,15.9,35,12.5,9.3
 2004/03/06,17:30,15.3,37,12.8,9.4
 2004/03/06,17:45,16.3,38,12.2,9.5
 2004/03/06,18:00,16.1,38,13.2,9.5
 2004/03/06,18:15,15.9,38,12,9.6
 2004/03/06,18:30,15.9,38,12.4,9.7
 2004/03/06,18:45,16,40,11.9,9.8
 2004/03/06,19:00,15.8,39,11.6,9.8
 2004/03/06,19:15,16.5,41,10.7,9.9
 2004/03/06,19:30,16.7,38,10.3,10
 2004/03/06,19:45,16.6,37,10.6,10.1
 2004/03/06,20:00,15.7,38,9.7,10.2
 2004/03/06,20:15,15.8,37,9.7,10.3
 2004/03/06,20:30,15.4,37,9.5,10.3
 2004/03/06,20:45,15.4,37,10.5,10.4
 2004/03/06,21:00,15.5,37,9.3,10.5
 2004/03/06,21:15,15.7,37,9,9.7
 2004/03/06,21:30,15.6,36,8.9,9.7
 2004/03/06,21:45,15.9,36,8.8,9.8
 2004/03/06,22:00,15.7,37,8.6,9.8
 2004/03/06,22:15,15.9,37,8.2,9.1
 2004/03/06,22:30,15.4,37,8.2,9.2
 2004/03/06,22:45,15.1,36,8,9.2
 2004/03/06,23:00,15,36,7.7,9.3
 2004/03/06,23:15,14.9,36,7.4,9.4
 2004/03/06,23:30,14.8,36,7.2,9.4
 2004/03/06,23:45,14.8,36,7.2,9.5
 2004/03/07, 0:00,14.8,36,7.1,9.5
 2004/03/07, 0:15,14.8,36,7,9.6
 2004/03/07, 0:30,14.7,36,6.9,9.6
 2004/03/07, 0:45,14.5,36,6.8,9.7
 2004/03/07, 1:00,14.4,36,6.8,9.7
 2004/03/07, 1:15,14.5,36,6.6,9.7
 2004/03/07, 1:30,14.5,35,6.4,9.8
 2004/03/07, 1:45,14.4,35,6.1,9.8
 2004/03/07, 2:00,14.3,35,6,9.9
 2004/03/07, 2:15,14.2,35,5.9,9.9
 2004/03/07, 2:30,14.3,35,5.8,9.9
 2004/03/07, 2:45,14.3,34,5.6,10
 2004/03/07, 3:00,13.6,34,5.3,10
 2004/03/07, 3:15,12.7,34,5.4,10.1
 2004/03/07, 3:30,12.2,34,5.3,7.5
 2004/03/07, 3:45,11.9,34,5,7.6
 2004/03/07, 4:00,11.4,34,4.8,7.6
 2004/03/07, 4:15,11.2,33,4.9,7.7
 2004/03/07, 4:30,10.9,34,5,7.7
 2004/03/07, 4:45,10.7,34,4.9,7.8
 2004/03/07, 5:00,10.4,34,5,7.8
 2004/03/07, 5:15,10.5,35,4.8,7.9
 2004/03/07, 5:30,11.6,36,4.9,7.9
 2004/03/07, 5:45,12,36,5.1,8
 2004/03/07, 6:00,12.2,36,5.1,8
 2004/03/07, 6:15,12.5,36,5.1,8.1
 2004/03/07, 6:30,18.2,28,5.6,8.1
 2004/03/07, 6:45,18.7,28,5.9,8.1
 2004/03/07, 7:00,17.8,31,5.8,8.2
 2004/03/07, 7:15,18.7,29,6.5,8.2
 2004/03/07, 7:30,19.1,29,7,7.5
 2004/03/07, 7:45,18.8,30,8.3,7.6
 2004/03/07, 8:00,18,29,7.9,7.6
 2004/03/07, 8:15,16.9,32,7.6,7.7
 2004/03/07, 8:30,16.7,32,7.7,7.8
 2004/03/07, 8:45,16,32,8.1,8
 2004/03/07, 9:00,15.5,31,7.6,8
 2004/03/07, 9:15,15.4,32,7.7,8.1
 2004/03/07, 9:30,15.9,32,7.9,8.1
 2004/03/07, 9:45,15.8,32,8,8.2
 2004/03/07,10:00,14.6,33,8,8.3
 2004/03/07,10:15,14.1,32,8.2,8.3
 2004/03/07,10:30,13.4,30,8.2,8.4
 2004/03/07,10:45,13.3,32,8.1,8.4
 2004/03/07,11:00,12.9,32,7.9,8.5
 2004/03/07,11:15,12.8,31,7.9,8.6
 2004/03/07,11:30,12.8,32,8,8.6
 2004/03/07,11:45,12.8,32,8.3,8.7
 2004/03/07,12:00,12.6,33,8.4,8.7
 2004/03/07,12:15,16,33,8.2,8.8
 2004/03/07,12:30,16,34,7.9,8.9
 2004/03/07,12:45,16.1,34,8.2,9
 2004/03/07,13:00,16.3,34,8.4,9
 2004/03/07,13:15,16.3,35,8.4,9.1
 2004/03/07,13:30,17.1,35,8.5,7.8
 2004/03/07,13:45,18.1,33,8.8,7.9
 2004/03/07,14:00,18.9,31,8.5,8
 2004/03/07,14:15,16.3,33,8.5,8.1
 2004/03/07,14:30,15.4,35,9,7.8
 2004/03/07,14:45,15.1,35,10.2,7.9
 2004/03/07,15:00,14.8,35,10.4,8
 2004/03/07,15:15,14.4,35,10.1,8.1
 2004/03/07,15:30,14.2,36,10.3,8.1
 2004/03/07,15:45,14.2,36,11,8.2
 2004/03/07,16:00,14.1,37,11.4,8.3
 2004/03/07,16:15,13.9,37,11.2,8.4
 2004/03/07,16:30,13.7,36,10.6,8.5
 2004/03/07,16:45,13.5,36,10,8.5
 2004/03/07,17:00,13.2,37,9.5,8.6
 2004/03/07,17:15,13.2,36,9.2,8.4
 2004/03/07,17:30,13.1,37,9,8.1
 2004/03/07,17:45,14.6,38,9.7,8.2
 2004/03/07,18:00,15.1,37,10.5,8.3
 2004/03/07,18:15,15.5,39,11.2,8.4
 2004/03/07,18:30,15.7,39,11.4,8.4
 2004/03/07,18:45,16.1,38,10.8,8.5
 2004/03/07,19:00,15.3,38,10.7,8.5
 2004/03/07,19:15,15.3,38,10.7,8.5
 2004/03/07,19:30,15.2,39,10.4,8.6
 2004/03/07,19:45,14.4,39,9.7,8.7
 2004/03/07,20:00,13.9,39,9.6,8.8
 2004/03/07,20:15,13.5,38,9,8.8
 2004/03/07,20:30,13.2,37,8.7,8.9
 2004/03/07,20:45,12.9,38,9,9
 2004/03/07,21:00,12.7,39,8.9,9.1
 2004/03/07,21:15,14.4,40,8.6,9.1
 2004/03/07,21:30,15.1,40,8.6,9.2
 2004/03/07,21:45,15.3,39,8.4,9.3
 2004/03/07,22:00,15.4,39,8.4,9.3
 2004/03/07,22:15,15.5,39,8.2,9.4
 2004/03/07,22:30,15.9,38,8.2,9.5
 2004/03/07,22:45,15.9,38,8.2,9.5
 2004/03/07,23:00,16,39,8.2,8.4
 2004/03/07,23:15,16.1,39,8.3,8.4
 2004/03/07,23:30,15.8,39,8.2,8.5
 2004/03/07,23:45,15.9,39,8.4,8.6
 2004/03/08, 0:00,15.7,39,8.3,8.7
 2004/03/08, 0:15,15.2,39,8,8.7
 2004/03/08, 0:30,14.8,39,7.8,8.8
 2004/03/08, 0:45,14,38,7.9,8.9
 2004/03/08, 1:00,13.5,38,7.6,9
 2004/03/08, 1:15,13.1,38,7.5,9
 2004/03/08, 1:30,12.8,38,7.4,9.1
 2004/03/08, 1:45,12.4,39,7.2,9.1